Location: Althorst
(53.6379°N, 10.7715°E)
Time: 20:53:51
(UTC+00:00)

CZ-4 R/B - Pass Details

Date: 10 December 2019
Orbit: 532 x 598 km, 97.7° (Epoch: 18 January)

Event Time Altitude Azimuth Distance (km) Brightness Sun altitude
Rises 18:43:19 0° 210° (SSW) 2,704 5.2 -32.1°
Reaches altitude 10° 18:46:13 10° 234° (SW) 1,807 4.5 -32.5°
Maximum altitude 18:48:32 15° 271° (W) 1,500 4.3 -32.8°
Drops below altitude 10° 18:50:51 10° 308° (NW) 1,803 4.6 -33.2°
Sets 18:53:45 0° 332° (NNW) 2,696 5.3 -33.6°
